BEIDOU-3 G3

Last updated on Sun Oct 26 2025 00:02:58 GMT+0000 (Coordinated Universal Time)

1 45807U 20040A 25298.28284443 -.00000341 00000+0 00000+0 0 9998 2 45807 1.8697 66.0650 0004569 316.4099 223.7843 1.00277178 19716
UTC large
Height (km)
Speed (km/s)
/
Latitude / Longitude
Inclination (degrees)
Orbital Period (minutes)
Azimuth
Elevation
Range (km)
Doppler Factor

Next 0 passes for location: London (51.5072 / 0.1276)

Sorry there are no passes over London.